Location: Austin
(30.3000°N, 97.7500°W)
Time: 23:38:59
(UTC-05:00)

Aurora 2 Rocket - Pass Details

Date: 05 September 2024
Orbit: 386 x 1615 km, 25.0° (Epoch: 14 September)

Event Time Altitude Azimuth Distance (km) Brightness Sun altitude
Rises 21:11:18 0° 263° (W) 2,740 7.0 -18.3°
Reaches altitude 10° 21:13:22 10° 256° (WSW) 1,983 6.0 -18.7°
Maximum altitude 21:17:45 42° 185° (S) 1,083 3.6 -19.6°
Enters shadow 21:19:36 32° 143° (SE) 1,381 3.9 -20.0°
